Regional Weather Roundup
Issued by NWS State College, PA

Home | Current Version | Previous Version | Graphics & Text | Print | Product List | Glossary Off
Versions: 1 2 3 4 5 6 7 8 9 10 11 12 13 14 15 16 17 18 19 20 21 22 23 24 25 26 27 28 29 30 31 32 33 34 35 36 37 38 39 40 41 42 43 44 45 46 47 48 49 50

000
ASUS41 KCTP 211310
RWRCTP

REGIONAL WEATHER ROUNDUP
NATIONAL WEATHER SERVICE STATE COLLEGE PA
900 AM EDT SUN SEP 21 2014

Note: "fair" indicates few or no clouds below 12,000 feet with no
significant weather and/or obstructions to visibility.

* = STATION THAT DOES NOT REPORT PRECIPITATION /E.G. RAIN...SNOW...ETC/
    THUNDER OR FOG.

PAZ002>004-007>009-013>016-020>023-029>032-211400-
WESTERN PENNSYLVANIA

CITY           SKY/WX    TMP DP  RH WIND       PRES   REMARKS
ERIE           PTSUNNY   72  64  78 SW20G30   29.65F
MEADVILLE      CLOUDY    67  63  87 SW8G18    29.72F
FRANKLIN*      CLOUDY    64  61  88 S15       29.77R
NEW CASTLE     NOT AVBL
BEAVER COUNTY  CLOUDY    68  63  83 S12G17    29.78
BUTLER*        PTSUNNY   68  61  77 S10G17    29.81S
PITTSBURGH INT LGT RAIN  69  63  81 SW12      29.79S
PITTSBURGH     MOSUNNY   67  59  75 S15       29.80F
INDIANA*       CLOUDY    68  63  83 SW7G13    29.87F
LATROBE        MOSUNNY   70  63  78 SW14      29.85F
WASHINGTON CO* PTSUNNY   68  63  83 S7        29.82F
$$

PAZ004>006-010>012-017>019-024>028-033>037-041-042-045-046-049>053-211400-
CENTRAL PENNSYLVANIA

CITY           SKY/WX    TMP DP  RH WIND       PRES   REMARKS
BRADFORD       CLOUDY    64  61  90 S12G18    29.78F FOG
DUBOIS         PTSUNNY   65  60  84 S8        29.81F
CLEARFIELD     LGT RAIN  62  59  90 SW6       29.84F
JOHNSTOWN      MOSUNNY   65  57  75 S14       29.88F
ALTOONA        SUNNY     64  59  83 SW5       29.88F
STATE COLLEGE  SUNNY     63  57  82 W8        29.85F
WILLIAMSPORT   SUNNY     65  58  78 E8        29.83F
SELINSGROVE    SUNNY     65  61  87 CALM      29.87F FOG
FT INDIANTOWN  FOG       61  61 100 E3        29.89F VSB 3/4
CAPITAL CITY   CLOUDY    62  60  93 SE5       29.88F FOG
HARRISBURG     FOG       62  60  93 S6        29.87F VSB 1/2
YORK           CLOUDY    59  59 100 CALM      29.88F FOG
$$

PAZ038>040-043-044-047-048-054-055-060>062-067>071-211400-
EASTERN PENNSYLVANIA

CITY           SKY/WX    TMP DP  RH WIND       PRES   REMARKS
SCRANTON       SUNNY     65  58  78 CALM      29.88F
MOUNT POCONO   MOSUNNY   61  57  87 W5        29.93S
ALLENTOWN      CLOUDY    63  59  87 CALM      29.90F FOG
QUAKERTOWN*    CLOUDY    64  59  82 CALM      29.91F
READING        FOG       62  60  93 SE3       29.88F VSB 3/4
LANCASTER      FOG       61  61 100 SE5       29.89F VSB 1/4
COATESVILLE    FOG       63  63 100 CALM      29.90F VSB<1/4
POTTSTOWN      CLOUDY    63  61  93 CALM      29.91F
BLUE BELL      CLOUDY    66  63  88 CALM      29.89F
DOYLESTOWN     CLOUDY    66  62  87 NW3       29.90S
WILLOW GROVE   NOT AVBL
NORTH PHILA    CLOUDY    68  63  84 N6        29.90F HAZE
PHILADELPHIA   CLOUDY    69  65  86 NE5       29.89F FOG
$$



USA.gov is the U.S. government's official web portal to all federal, state and local government web resources and services.